Location: Rye
(30.7294°N, 96.4902°W)
Time: 18:04:40
(UTC+00:00)

Tiros 1 despin weight - Pass Details

Date: 07 December 2025
Orbit: 557 x 596 km, 48.2° (Epoch: 10 January)

Event Time Altitude Azimuth Distance (km) Brightness Sun altitude
Rises 02:06:06 0° 255° (WSW) 2,767 ? -34.0°
Reaches altitude 10° 02:08:37 10° 267° (W) 1,864 ? -34.5°
Enters shadow 02:09:48 16° 278° (W) 1,489 ? -34.8°
